Wind_Speed
6 6 7 7 7 7 7 6 5 5 4 4 4 4 4 4 5 6 6 6 6 7 7 7 7 7 7 7 7 7 7 7 7 7 7 7 7 7 7 7 7 7 7 8 8 8 9 10 11
4 5 5 5 6 6 5 5 5 5 4 4 4 4 5 5 6 6 7 7 8 8 9 9 9 9 9 9 9 8 8 8 8 7 7 7 7 6 6 6 6 6 6 6 7 7 7 8 9
2 3 4 4 4 3 3 4 5 5 5 6 6 6 6 7 7 8 8 9 10 10 11 12 12 12 12 12 11 11 11 10 10 9 9 8 8 7 7 7 7 6 6 5 5 5 6 6 6
3 2 3 4 4 5 4 6 6 7 7 8 8 8 9 9 10 10 10 11 11 12 13 13 14 15 15 15 15 14 14 13 13 12 11 11 10 9 8 7 7 7 6 5 5 5 5 5 5
4 4 4 4 5 7 7 8 10 9 10 11 11 12 12 12 12 13 13 14 14 14 14 15 15 17 18 18 18 18 17 16 16 15 15 14 12 11 10 9 8 7 7 6 5 5 4 4 4
6 6 6 6 8 9 10 11 13 12 13 14 15 16 17 17 17 17 17 18 17 17 17 16 16 17 19 19 20 20 20 20 20 19 18 17 16 15 13 12 11 9 8 7 6 5 5 4 3
7 7 8 9 10 11 12 14 15 14 16 17 18 20 20 21 21 21 21 21 21 21 21 21 20 20 20 20 20 20 21 22 23 23 22 20 19 18 17 15 14 12 11 9 8 7 6 5 4
9 9 10 11 12 13 15 16 17 18 19 20 22 23 24 24 25 25 25 26 25 25 26 25 24 23 23 21 21 21 22 23 24 25 25 24 23 21 20 18 17 16 14 13 11 9 8 7 5
10 10 12 13 14 16 17 18 19 20 22 23 24 25 26 27 28 28 29 29 30 31 31 31 30 29 27 27 25 25 25 24 24 24 25 25 25 24 22 21 20 19 18 16 15 13 11 9 8
12 12 14 15 17 18 19 20 21 23 24 25 27 28 28 29 29 30 31 32 32 33 34 35 36 35 34 33 33 32 29 28 27 25 25 25 25 25 25 24 23 22 21 20 18 16 15 13 11
13 14 16 17 18 20 21 23 24 25 26 27 28 28 28 28 28 29 30 31 32 33 35 36 37 38 38 38 39 38 37 35 34 31 28 27 25 26 26 26 25 25 24 22 21 20 18 16 15
14 15 17 19 20 21 23 24 26 26 27 28 28 27 27 26 27 28 29 30 31 32 33 34 35 36 38 39 40 41 41 41 39 37 34 31 29 29 28 26 27 27 26 25 23 22 21 20 19
16 17 18 20 21 22 23 25 26 26 26 26 26 25 25 26 26 27 27 28 29 30 31 31 32 33 33 35 37 39 41 42 42 41 40 38 36 33 32 30 27 28 28 27 27 26 23 22 21
17 18 20 21 21 22 23 24 25 25 24 24 25 25 24 24 24 25 25 26 26 27 28 29 29 30 30 31 32 34 36 39 42 43 43 42 41 40 36 34 32 30 29 29 28 29 27 25 23
18 19 20 21 22 22 23 22 22 23 23 24 23 22 22 22 22 23 23 23 24 24 24 25 26 27 28 28 29 30 31 33 36 39 42 43 43 43 42 39 37 34 33 32 29 29 29 28 27
19 20 20 20 21 21 21 21 21 21 21 21 20 20 19 20 21 21 21 21 22 22 22 22 23 24 25 25 26 27 28 30 32 34 37 40 42 43 44 43 42 39 37 36 34 31 30 30 30
18 19 20 20 19 19 19 19 19 19 19 18 18 18 19 20 20 20 20 20 20 20 21 21 21 21 21 21 23 24 25 27 28 30 33 36 39 41 42 43 43 43 41 39 37 35 34 32 31
18 18 18 18 17 17 17 17 17 16 16 16 16 17 18 18 18 19 19 20 20 20 19 19 18 18 17 18 19 20 21 24 25 27 29 33 36 38 40 42 43 43 43 43 41 40 38 35 33
17 16 16 16 16 15 15 15 14 14 13 14 15 16 16 17 18 19 19 20 20 19 19 18 18 16 16 15 15 15 16 18 20 23 25 28 31 35 37 40 41 42 43 43 43 43 42 40 38
14 14 14 14 13 13 13 12 11 11 12 13 14 15 16 18 18 18 19 19 20 20 19 19 18 17 16 15 14 14 13 14 15 17 20 23 26 30 34 37 40 41 42 42 43 43 43 42 41
12 12 12 12 11 10 9 9 9 10 11 12 13 15 17 17 18 18 19 19 20 20 19 19 18 18 17 16 14 13 13 12 13 14 16 19 22 25 29 33 37 40 42 43 43 44 44 43 42
10 10 9 8 8 7 7 7 8 9 11 12 13 15 16 17 18 19 19 19 20 19 19 19 19 18 18 17 15 14 13 12 12 12 13 15 17 21 24 27 31 35 38 41 43 44 44 44 43
8 7 6 5 5 4 5 6 8 9 11 12 13 14 15 16 18 19 20 20 20 19 19 19 19 19 19 18 17 15 14 13 12 12 13 13 15 17 20 23 27 30 34 37 40 42 44 44 44
5 3 3 3 3 3 4 6 7 9 10 12 13 14 15 16 18 19 20 20 20 20 19 19 19 19 19 19 18 16 15 14 13 13 12 13 14 15 17 19 23 26 30 34 37 40 42 44 45
2 0 2 2 3 3 4 6 7 9 10 12 13 14 15 16 18 19 20 20 20 20 20 20 20 20 20 20 19 18 17 16 15 14 14 14 13 13 14 16 18 22 25 29 33 37 41 43 45
2 2 3 4 4 4 4 6 7 8 10 12 13 14 15 16 17 19 20 20 20 20 20 21 21 21 21 21 20 20 19 18 16 15 14 14 13 13 13 14 15 18 21 24 28 33 37 41 44
4 4 5 5 5 5 5 6 7 9 10 12 13 14 15 16 17 18 18 19 20 21 21 21 21 21 22 22 22 21 21 20 18 16 16 15 14 13 13 13 14 15 18 21 24 27 31 35 39
5 5 6 5 5 5 5 6 7 9 10 12 13 14 14 15 16 17 17 18 19 21 21 21 22 22 22 22 22 22 22 21 20 19 18 17 16 14 14 14 14 15 16 18 21 24 27 31 34
5 6 6 6 5 4 4 5 6 8 10 11 12 13 14 14 15 16 17 18 19 20 21 21 22 22 22 22 22 22 22 22 22 21 20 19 18 17 16 16 16 16 17 18 19 21 24 27 31
6 6 6 5 4 4 4 5 6 8 9 11 12 13 13 14 14 15 16 17 18 19 20 21 22 22 23 23 23 23 23 23 23 23 22 21 20 19 18 18 17 17 17 17 18 20 22 24 27
Wind_Direction
71 62 54 56 57 57 52 42 32 31 31 29 21 10 1 348 332 312 302 290 281 270 259 249 242 235 226 216 209 204 200 196 188 180 177 173 170 170 174 182 190 198 207 212 219 227 236 238 242
71 55 47 50 50 49 38 27 20 17 8 0 355 354 344 333 323 319 310 298 287 279 275 261 250 247 241 233 225 219 215 211 206 198 192 187 184 181 180 182 187 193 202 210 216 223 232 237 242
50 33 30 30 25 7 351 353 352 351 343 338 338 337 332 325 318 313 310 301 294 286 284 272 258 251 247 242 236 231 227 223 218 213 209 204 200 197 193 193 192 193 198 204 211 219 228 235 239
349 349 1 7 356 337 333 335 328 323 328 327 324 322 319 317 312 310 306 303 300 293 290 281 265 257 249 243 240 237 233 231 227 223 220 217 213 209 206 203 201 201 202 204 208 216 224 233 236
316 316 329 323 317 316 318 324 320 316 318 318 316 313 311 310 308 305 302 300 296 294 295 292 275 264 257 250 243 241 238 236 233 230 227 224 222 220 217 213 210 207 206 205 205 211 218 224 227
298 304 316 305 305 307 310 314 317 308 310 309 306 305 305 304 302 299 297 296 294 290 291 290 285 274 265 257 250 247 244 241 238 236 232 230 228 225 223 221 218 215 214 213 212 213 217 217 215
288 297 302 301 301 303 306 309 309 306 306 304 302 300 299 299 297 294 291 289 287 282 279 278 278 277 269 262 257 256 253 251 247 240 237 236 233 231 229 226 225 223 222 221 222 221 221 219 212
281 290 296 298 301 300 301 304 304 301 301 300 299 299 298 297 295 291 288 285 282 279 276 275 272 270 267 263 258 258 258 258 254 249 244 241 238 234 232 232 231 230 229 228 228 228 227 225 220
280 288 292 295 296 298 300 302 302 301 301 301 300 299 298 296 293 290 287 284 281 277 275 272 268 266 263 260 260 260 261 260 257 257 254 249 242 237 235 235 235 234 232 231 231 231 231 230 227
278 285 290 293 296 300 302 303 304 303 303 303 302 300 299 297 294 292 289 285 281 278 275 272 269 267 264 261 260 260 259 258 257 258 257 253 247 242 239 239 236 235 235 233 233 233 232 232 231
276 283 289 294 298 301 303 304 304 304 304 304 303 303 302 300 297 294 291 288 284 281 277 274 272 269 266 264 262 262 261 260 259 257 256 255 255 248 245 241 237 235 235 235 234 234 233 232 232
278 284 290 295 300 302 303 304 304 304 305 305 306 306 306 304 302 299 295 291 288 285 282 279 276 273 270 267 265 263 261 260 260 258 255 255 254 250 248 245 241 237 236 237 236 235 234 234 234
279 286 291 296 300 303 305 305 306 306 307 308 309 309 308 308 306 303 300 296 292 288 285 283 281 278 274 271 268 265 262 259 259 258 256 255 254 251 250 245 245 242 238 238 239 236 234 234 235
282 288 292 297 302 304 306 307 307 308 309 310 312 314 314 314 312 309 307 304 300 296 292 288 284 280 277 274 271 268 264 261 258 257 256 255 253 252 251 248 246 245 241 240 241 237 236 238 238
283 289 295 299 304 307 308 308 309 311 312 315 317 320 320 321 320 318 317 314 310 306 301 296 290 286 281 277 274 270 266 262 259 256 255 255 254 252 251 249 247 248 245 243 243 241 237 238 239
283 290 296 301 306 308 309 311 313 315 317 321 324 326 328 330 329 328 326 324 321 317 312 306 300 293 287 281 276 271 267 264 260 257 255 254 254 252 251 250 249 248 248 246 244 242 240 240 240
283 290 297 302 306 309 311 312 315 319 323 327 329 332 335 337 337 337 336 334 331 328 323 318 312 304 295 287 280 274 269 265 262 260 257 254 253 251 250 250 250 248 248 248 248 245 242 242 241
284 292 298 303 308 311 313 316 320 324 329 333 336 339 342 344 345 344 342 341 338 336 334 330 325 319 310 300 290 281 273 268 265 262 259 255 253 251 250 249 249 249 249 249 248 248 245 244 243
285 293 299 306 311 314 317 320 327 332 339 343 345 348 349 349 347 345 344 344 344 343 342 341 337 332 326 318 308 296 285 275 269 266 262 258 254 250 248 248 248 247 248 248 248 248 247 246 244
287 295 303 309 314 317 320 328 337 345 352 354 355 355 353 350 348 348 347 347 347 347 346 346 345 342 338 332 325 317 304 290 279 273 267 262 256 252 249 248 247 247 246 246 247 247 247 246 244
288 297 305 312 318 323 330 344 354 0 2 2 1 359 356 354 353 353 352 351 350 350 351 352 352 350 348 343 337 328 320 307 294 284 276 269 262 256 252 249 247 246 246 245 245 245 247 246 245
286 297 306 316 326 337 349 360 8 10 8 5 3 1 0 1 0 0 359 357 356 356 356 357 357 356 354 351 346 338 330 322 311 300 290 280 271 263 256 252 249 247 246 245 245 245 245 245 244
282 296 311 327 344 358 10 16 19 16 12 7 4 3 4 5 4 4 3 2 1 1 1 0 0 0 359 357 353 348 341 333 323 312 304 295 285 275 265 256 251 249 247 246 245 245 244 244 243
272 296 334 358 13 30 31 33 29 21 16 12 10 9 9 7 6 6 6 6 6 6 6 5 6 6 4 4 2 358 352 346 338 327 316 306 296 286 276 265 257 253 250 248 246 245 244 243 242
245 353 50 55 61 61 48 41 32 26 21 18 15 14 12 12 11 11 10 11 11 12 12 12 11 11 10 10 9 6 1 356 349 341 330 320 309 299 288 276 266 260 255 251 248 246 244 243 242
144 102 98 101 93 73 54 42 32 27 23 20 18 16 16 15 15 15 15 15 16 16 17 17 16 16 16 15 14 12 9 4 359 353 345 334 324 313 303 291 278 270 263 257 252 248 246 244 243
128 108 107 106 95 77 59 47 36 28 24 20 19 17 16 17 17 17 18 19 20 20 20 19 20 20 19 19 18 16 14 11 7 1 355 348 338 327 317 307 295 284 273 263 257 252 249 246 244
126 113 110 106 97 78 61 44 31 26 22 20 18 17 17 18 20 20 21 21 22 23 22 22 22 21 20 20 19 18 15 13 9 5 0 355 348 340 329 318 308 297 286 273 264 258 253 249 245
129 117 108 103 94 80 58 40 30 26 22 20 20 20 21 22 23 23 23 23 24 25 24 24 23 22 21 20 19 18 16 14 11 7 3 358 353 346 338 328 317 307 296 284 274 265 257 252 247
130 119 110 104 93 74 57 41 30 28 26 26 25 24 24 23 23 24 23 23 24 24 23 22 22 21 20 19 19 18 16 14 12 9 5 360 354 349 342 335 326 316 306 295 283 271 263 256 250
Height
5933 5932 5932 5932 5932 5931 5930 5929 5928 5926 5925 5924 5922 5921 5920 5919 5919 5920 5916 5913 5912 5911 5910 5909 5909 5908 5907 5907 5906 5906 5905 5905 5904 5903 5903 5902 5901 5901 5901 5900 5900 5901 5901 5901 5901 5901 5901 5901 5902
5934 5933 5933 5933 5932 5931 5930 5929 5928 5926 5925 5924 5922 5921 5920 5918 5917 5916 5913 5912 5911 5909 5908 5907 5907 5906 5906 5905 5905 5904 5904 5903 5903 5902 5902 5901 5901 5900 5900 5900 5900 5900 5900 5900 5900 5900 5900 5900 5900
5934 5934 5934 5933 5932 5931 5930 5929 5927 5926 5925 5923 5922 5920 5919 5917 5916 5914 5912 5911 5909 5908 5906 5905 5904 5904 5903 5903 5903 5902 5902 5902 5901 5901 5900 5900 5900 5899 5899 5899 5899 5899 5899 5899 5898 5898 5898 5898 5898
5935 5935 5935 5934 5932 5931 5929 5928 5926 5925 5924 5922 5920 5919 5917 5916 5914 5912 5910 5908 5907 5905 5904 5902 5901 5900 5900 5899 5899 5899 5899 5899 5899 5899 5899 5898 5898 5898 5898 5898 5897 5897 5897 5898 5897 5897 5897 5897 5897
5934 5934 5934 5932 5931 5930 5928 5927 5925 5923 5922 5920 5919 5917 5915 5913 5911 5910 5908 5906 5904 5903 5901 5899 5898 5897 5896 5895 5895 5895 5895 5896 5896 5896 5896 5896 5896 5896 5896 5896 5896 5896 5896 5896 5896 5896 5896 5896 5896
5933 5933 5933 5931 5930 5928 5927 5925 5923 5921 5919 5918 5916 5914 5912 5910 5908 5907 5905 5903 5901 5899 5898 5896 5894 5893 5892 5891 5891 5891 5890 5891 5891 5891 5892 5892 5893 5893 5894 5894 5894 5894 5895 5895 5895 5895 5895 5895 5895
5932 5931 5930 5930 5928 5927 5925 5923 5921 5919 5917 5915 5913 5911 5909 5907 5905 5903 5901 5899 5897 5895 5894 5892 5890 5889 5887 5887 5886 5886 5886 5886 5886 5886 5887 5888 5889 5890 5890 5891 5892 5892 5893 5893 5893 5894 5894 5894 5894
5929 5930 5928 5927 5926 5925 5923 5920 5918 5916 5914 5912 5910 5908 5905 5903 5901 5899 5896 5894 5893 5891 5889 5887 5886 5884 5883 5882 5881 5881 5881 5881 5881 5881 5882 5883 5884 5885 5886 5887 5888 5889 5890 5891 5891 5892 5892 5893 5893
5927 5928 5926 5925 5924 5922 5919 5917 5915 5912 5910 5908 5906 5903 5901 5898 5896 5893 5891 5889 5887 5885 5883 5881 5880 5879 5878 5877 5876 5875 5876 5876 5876 5876 5876 5877 5878 5879 5881 5883 5884 5885 5886 5887 5888 5889 5890 5891 5891
5925 5925 5923 5922 5920 5918 5916 5914 5911 5909 5906 5904 5901 5898 5896 5893 5890 5887 5885 5882 5879 5877 5875 5874 5873 5872 5871 5870 5870 5870 5870 5870 5871 5871 5871 5871 5872 5873 5875 5877 5879 5881 5882 5883 5885 5886 5887 5888 5889
5922 5922 5920 5918 5916 5914 5912 5910 5907 5905 5902 5899 5896 5893 5890 5887 5884 5881 5878 5875 5872 5869 5867 5866 5864 5863 5863 5862 5862 5862 5863 5864 5864 5865 5865 5866 5867 5868 5870 5871 5873 5875 5877 5879 5880 5882 5883 5885 5886
5920 5918 5917 5915 5913 5911 5909 5906 5903 5900 5898 5894 5891 5888 5885 5882 5878 5875 5871 5868 5865 5862 5859 5857 5856 5855 5854 5853 5853 5854 5855 5856 5857 5858 5859 5860 5862 5863 5864 5865 5867 5869 5871 5873 5875 5877 5879 5881 5882
5917 5915 5914 5912 5910 5908 5905 5902 5899 5896 5893 5890 5887 5884 5880 5876 5872 5869 5865 5861 5858 5855 5852 5850 5848 5846 5845 5845 5845 5845 5846 5847 5848 5850 5851 5853 5855 5857 5858 5860 5862 5864 5865 5867 5870 5872 5874 5876 5878
5914 5912 5911 5908 5907 5904 5901 5898 5895 5892 5889 5885 5882 5879 5875 5871 5867 5863 5859 5855 5852 5848 5846 5843 5841 5839 5838 5837 5836 5836 5836 5837 5839 5840 5842 5844 5847 5849 5852 5854 5856 5858 5859 5861 5864 5866 5868 5871 5873
5911 5910 5908 5906 5903 5901 5898 5895 5891 5888 5885 5881 5878 5874 5870 5866 5862 5858 5854 5850 5846 5843 5840 5837 5834 5832 5830 5829 5828 5828 5828 5828 5830 5831 5833 5835 5837 5840 5843 5846 5848 5851 5853 5855 5857 5860 5862 5865 5867
5908 5907 5905 5903 5900 5897 5896 5892 5888 5884 5881 5878 5874 5870 5867 5863 5859 5855 5850 5846 5842 5838 5835 5831 5828 5825 5823 5822 5821 5820 5820 5821 5821 5823 5824 5826 5828 5831 5833 5837 5840 5843 5845 5848 5851 5854 5856 5859 5861
5905 5904 5902 5900 5897 5894 5892 5889 5885 5881 5878 5874 5871 5867 5864 5860 5856 5852 5848 5843 5839 5835 5831 5827 5823 5820 5817 5816 5814 5814 5813 5813 5814 5815 5816 5817 5819 5821 5824 5827 5831 5834 5837 5840 5843 5847 5849 5852 5855
5902 5901 5899 5896 5894 5891 5888 5885 5882 5878 5875 5872 5869 5865 5861 5858 5854 5850 5846 5842 5837 5833 5828 5824 5820 5816 5813 5811 5809 5808 5807 5807 5807 5807 5808 5809 5810 5812 5815 5818 5821 5825 5828 5832 5835 5839 5842 5845 5848
5899 5898 5896 5893 5890 5888 5885 5882 5879 5876 5873 5870 5867 5863 5860 5856 5853 5848 5844 5840 5835 5831 5826 5822 5817 5814 5810 5807 5805 5803 5802 5801 5801 5801 5801 5802 5803 5805 5807 5810 5813 5816 5820 5823 5827 5830 5834 5837 5841
5895 5894 5892 5890 5887 5885 5882 5880 5877 5874 5871 5869 5865 5862 5859 5855 5851 5847 5843 5839 5834 5829 5825 5820 5816 5812 5808 5805 5802 5800 5798 5797 5796 5796 5795 5795 5796 5797 5799 5802 5804 5808 5811 5814 5818 5821 5825 5828 5832
5892 5891 5889 5887 5884 5882 5880 5878 5876 5873 5870 5868 5865 5862 5858 5855 5851 5846 5842 5838 5833 5828 5824 5819 5815 5811 5807 5803 5800 5798 5796 5794 5793 5792 5791 5790 5790 5791 5792 5794 5796 5799 5802 5805 5808 5812 5815 5819 5823
5889 5888 5886 5884 5882 5880 5879 5877 5875 5872 5870 5867 5865 5862 5858 5854 5850 5846 5841 5837 5832 5828 5823 5819 5814 5810 5806 5802 5798 5795 5793 5791 5790 5788 5787 5786 5785 5785 5786 5787 5788 5790 5793 5796 5799 5803 5806 5810 5813
5887 5885 5884 5882 5881 5879 5878 5877 5876 5872 5870 5867 5865 5861 5858 5854 5850 5846 5841 5837 5832 5827 5823 5818 5814 5810 5805 5801 5797 5794 5791 5789 5787 5785 5784 5783 5781 5780 5780 5780 5781 5783 5785 5787 5790 5793 5796 5800 5803
5884 5883 5882 5880 5880 5879 5878 5877 5875 5872 5870 5867 5864 5861 5858 5854 5850 5846 5841 5837 5832 5827 5823 5818 5814 5810 5805 5801 5797 5793 5790 5787 5785 5783 5781 5779 5778 5776 5775 5775 5775 5776 5778 5779 5781 5784 5786 5789 5793
5882 5882 5881 5880 5879 5879 5877 5876 5875 5872 5870 5867 5864 5861 5858 5854 5850 5846 5842 5837 5832 5828 5823 5819 5814 5810 5806 5801 5797 5793 5790 5786 5783 5781 5778 5776 5774 5773 5771 5770 5770 5770 5770 5772 5773 5775 5777 5780 5783
5880 5881 5881 5880 5879 5878 5877 5876 5875 5872 5870 5867 5864 5861 5858 5854 5850 5846 5842 5838 5833 5829 5824 5820 5815 5811 5806 5802 5798 5794 5790 5786 5783 5779 5776 5773 5771 5769 5767 5766 5765 5764 5764 5764 5765 5766 5768 5770 5773
5879 5879 5879 5879 5878 5878 5877 5876 5874 5872 5870 5867 5864 5861 5858 5854 5851 5847 5843 5839 5835 5830 5826 5821 5817 5812 5808 5803 5799 5795 5791 5786 5782 5779 5776 5772 5769 5767 5764 5762 5761 5759 5758 5758 5758 5758 5759 5761 5764
5878 5878 5878 5878 5878 5877 5877 5875 5874 5872 5869 5867 5864 5861 5858 5855 5851 5848 5844 5840 5836 5832 5827 5823 5818 5814 5809 5805 5800 5796 5792 5787 5783 5779 5775 5771 5768 5765 5762 5759 5757 5755 5753 5752 5751 5751 5752 5753 5755
5878 5878 5877 5877 5877 5877 5876 5877 5874 5872 5869 5867 5864 5861 5858 5855 5852 5849 5845 5842 5838 5833 5829 5825 5820 5816 5811 5806 5802 5797 5793 5788 5784 5779 5775 5771 5767 5763 5760 5756 5753 5751 5748 5746 5745 5744 5744 5745 5746
5876 5877 5877 5877 5877 5876 5876 5878 5873 5871 5869 5867 5864 5861 5859 5856 5853 5849 5846 5843 5839 5835 5831 5827 5822 5817 5813 5808 5803 5799 5794 5789 5784 5780 5775 5770 5766 5761 5757 5753 5750 5747 5744 5741 5739 5738 5737 5738 5738